STARLINK-3925, 52498

Orbit data source: Space-Track

STARLINK-3925, 52498 is a payload satellite owned by SpaceX/Seattle (US) in LEO that was launched on Fri, 06 May 2022 UTC via an FALCON 9 launch vehicle from the Air Force Eastern Test Range (AFETR). Payload-class satellites include a variety of spacecraft equipped with specific instruments for various scientific and technological missions. These include communications satellites like Starlink; space stations such as the ISS; scientific satellites like the Hubble; Earth observation satellites from companies like Planet Labs, Umbra, and HawkEye 360; GPS; miniature CubeSats for education and research; and military/defense satellites.

Loading next visibility...
Identifier
52498, 2022-049AZ
Orbit
LEO
Country
Flag of USUS
Related business
Manufacturer
SpaceX/Seattle
Mission
Operational Commercial Communications
Bus & Motor
STARLINK, Unknown motor
Mass
297 kg wet, ~220 kg dry
Launch date (UTC)
2022-05-06 (4 years ago)
Launch vehicle
FALCON 9
Launch site
Air Force Eastern Test Range (AFETR)
Object type
Payload
Rocket body
Debris
Shape & HBR
Box + 1 Pan, 10.1 m
Radar Cross Section
13.562 m², Large (>1 m²)

Expand to show TLE details & history
Last TLE update: 22 hours ago

TLE from 22 hours ago
0 STARLINK-3925
1 52498U 22049AZ  26193.45578460 -.00001225  00000-0 -58881-4 0  9991
2 52498  53.1557 198.7712 0000812 100.6457 259.4625 15.08830721231368
Epoch: 2026-07-12T10:56Z
TLE epoch observation values (Epoch: 2026-07-12T10:56:19.789Z)
Latitude
-0.00009°
Longitude
104.33428°
Altitude
540.765 km
Speed
7.593 km/s
True Right ascension
13h 15m 05s
True Declination
0° 00' 00"
Sunlit
Object was in daylight at epoch
Visualization orbit readout
Latitude
Unknown
Longitude
Unknown
Altitude
Unknown
Speed
Unknown
Apparent Right ascension
Unknown
Apparent Declination
Unknown
Sunlit
N/A
Visualization observer readout
Local Sidereal Time
21:29:01
Azimuth
Unknown
Elevation
Unknown
Doppler factor
Unknown
Orbital elements
Apogee altitude
540.588 km
Perigee altitude
539.465 km
Semi-major axis
6,918.164 km
Eccentricity
0.00008
Inclination
53.1557°
RAAN
198.7712°
Arg. of periapsis
100.6457°
True anomaly
259.45335°
Mean anomaly
259.4625°
Eccentric anomaly
259.45793°
Mean motion
3.77187 °/min
Orbital period
95.44 mins
BSTAR
-0.000058881
Loading maneuver chart data...
Computing Atmospheric mass density...
Loading historical data...
Loading historical data...
Loading historical data...
Loading historical data...
Loading historical data...
Loading historical data...
Loading historical data...

Documentation

Showing up to 5 results
|